NOAA 16 DEB

Satellite information

Favourite Embed

Satellite Type and Status

DEBRISIN ORBIT

Key statistics

Satellite NOAA 16 DEB at a glance.

Uptime

9055

Days in orbit

Revolutions

≈ 14.2

Per day

Orbit

SSO

Sun Synchronous Orbit

Inclination

98.7

Latest

Satellite identification and parameters

Extended collection of information and parameters for NOAA 16 DEB.

Object identification

Identified? True

Debris? True

Object name: NOAA 16 DEB

International designator: 2000-055GR

Object number (NORAD): 41289

Object ID (CCSDS): 41289

Country: UNITED STATES OF AMERICA (US)

Current information (Y/N): Y

RCS size: SMALL

Orbital parameters

Period: 101.684 minutes

Inclination: 98.6644 deg

SMA: 7216.539 km

Apoapsis: 863.844 km

Periapsis: 812.963 km

RAAN: 209.4759 deg

Eccentricy: 0.0035253

Argument of periapsis: 160.1813 deg

Mean anomaly: 200.074 deg

Mean motion: 14.16150293 rev/day

Mean motion (dot): 0.00002204 rev/day2

B* drag term: 0.0011288 1/REarth

Two-line elements (TLE)

Creation date: July 6, 2025, 6:05 p.m.

Reference frame: TEME

Reference center: EARTH

Epoch: July 6, 2025, 12:09 p.m. UTC

TLE line 0: 0 NOAA 16 DEB

TLE line 1: 1 41289U 00055GR 25187.50648120 .00002204 00000-0 11288-2 0 9993

TLE line 2: 2 41289 98.6644 209.4759 0035253 160.1813 200.0740 14.16150293489755

Live tracking on map

Real-time ground track for satellite NOAA 16 DEB.

In-orbit conjunctions

A list of the most updated potential collisions computed for object NOAA 16 DEB.

Target Orbit TCA Probability of collision Miss distance Type
COSMOS 1844 LEO 2025-01-24 11:50:05 0.0001528569 282.0 (m) PAYLOAD
SL-3 R/B LEO 2024-10-21 00:52:40 0.0001594767 172.0 (m) ROCKET BODY

Associated space launch

The NOAA K, L and M POES satellites begin the fifth generation of improved environmental monitoring in support of NOAA missions. The instrument payload has significant improvements and additions/deletions. The instrument changes have effected the spacecraft subsystems and data formats.

NOAA 16 DEB was lifted into orbit during the mission ‘Titan II SLV | NOAA 16’, on board a Titan II SLV space rocket.

The launch took place on Sept. 21, 2000, 10:22 a.m. from Space Launch Complex 4W.

For more information about the launch, click the button.

Launch to space Titan II SLV | NOAA 16
Titan II SLV | NOAA 16

Agency: N/A

Status: Launch Successful

Launch date: Sept. 21, 2000, 10:22 a.m. UTC

Rocket: Titan II SLV

Launch pad: Space Launch Complex 4W

Location: Vandenberg SFB, CA, USA

...

Latest news about this satellite

There are no fresh news available about this satellite. Check back as we update our databases every day.


Newsletter sign-up

Weekly statistics, charts and insights to help you stay on top of the space industry.